Regional Weather Roundup
Issued by NWS Northern Indiana

Home | Current Version | Previous Version | Graphics & Text | Print | Product List | Glossary On
Versions: 1 2 3 4 5 6 7 8 9 10 11 12 13 14 15 16 17 18 19 20 21 22 23 24 25 26 27 28 29 30 31 32 33 34 35 36 37 38 39 40 41 42 43 44 45 46 47 48 49 50
054
ASUS43 KIWX 231300
RWRIWX

KIWX WEATHER ROUNDUP
NATIONAL WEATHER SERVICE NORTHERN INDIANA
900 AM EDT THU MAR 23 2017

NOTE: "FAIR" INDICATES FEW OR NO CLOUDS BELOW 12,000 FEET WITH NO
SIGNIFICANT WEATHER AND/OR OBSTRUCTIONS TO VISIBILITY.

* THESE STATIONS ARE NOT UNDER NWS QUALITY CONTROL. THEY ALSO MAY NOT
  REPORT WEATHER SUCH AS PRECIPITATION OR FOG.

INZ001>027-231400-
NORTHERN INDIANA

CITY           SKY/WX    TMP DP  RH WIND       PRES   REMARKS
GARY*          PTSUNNY   32  18  55 SE12      30.44S WCI  23
MICHIGAN CITY* CLOUDY    30  18  59 SE8       30.45F WCI  23
KNOX*          CLOUDY    30   0  27 SE9       30.45S WCI  22
SOUTH BEND     CLOUDY    28  16  60 SE12      30.47R WCI  18
ELKHART*       CLOUDY    28  16  59 SE9       30.48R WCI  20
GOSHEN         MOSUNNY   28  12  51 E12       30.46S WCI  18
MONTICELLO*    CLOUDY    29  19  66 E7        30.44S WCI  22
ANGOLA*        SUNNY     25  10  54 SE13      30.47F WCI  13
FORT WAYNE     CLOUDY    25  17  72 E10       30.48F WCI  15
PERU/GRISSOM   CLOUDY    29  20  67 E9        30.44R WCI  21

$$
INZ028>050-231400-
CENTRAL INDIANA

CITY           SKY/WX    TMP DP  RH WIND       PRES   REMARKS
LAFAYETTE      CLOUDY    30  22  72 E8        30.43R WCI  22
KOKOMO*        MOSUNNY   29  22  75 E12       30.46R WCI  19
MUNCIE*        CLOUDY    29  19  66 SE12      30.44S WCI  19
INDIANAPOLIS   PTSUNNY   30  19  63 E12       30.42S WCI  20

$$
MIZ043>046-050>051-056>058-064>065-071>073-077>080-231400-
SOUTHWEST LOWER MICHIGAN

CITY           SKY/WX    TMP DP  RH WIND       PRES   REMARKS
BATTLE CREEK   CLOUDY    26  16  65 SE12      30.48F WCI  16
BENTON HARBOR  CLOUDY    29  17  61 SE8       30.46S WCI  21
COLDWATER*     MOSUNNY   27  13  57 SE13      30.48F WCI  16
HILLSDALE*     CLOUDY    25  16  68 SE12G18   30.49S WCI  14
HOLLAND        CLOUDY    27  18  69 E12       30.48R WCI  17
GRAND RAPIDS   PTSUNNY   26  15  63 SE12      30.49S WCI  16
KALAMAZOO      MOSUNNY   27  14  58 SE8       30.48F WCI  19
STURGIS*       MOSUNNY   27  12  53 SE14      30.47S WCI  16
THREE RIVERS*  FAIR      26  15  63 SE7       30.49R WCI  19

$$
OHZ001>008-015>018-024>025-231400-
NORTHWEST OHIO

CITY           SKY/WX    TMP DP  RH WIND       PRES   REMARKS
DEFIANCE       CLOUDY    23  16  74 E9        30.53S WCI  13
FINDLAY        MOSUNNY   24  14  65 E6        30.52S WCI  17
TOLEDO EXPRESS MOSUNNY   24  16  71 E5        30.55S WCI  18
TOLEDO METCALF MOSUNNY   26  18  71 SE7       30.57R WCI  18
LIMA           CLOUDY    24  15  68 SE10      30.50R WCI  14

$$
AND FOR LAKE MICHIGAN COASTAL AND OPEN LAKE BUOY OBSERVATIONS

STATION/POSITION TEMP    WIND        PRES    VSBY  WAVE
                 AIR SEA DIR/SP/G                  HT/PER
                 (F)     (DEG/KT/KT) (MB)    (MI)  (FT/S)
CALUMET HARBOR    32     130/  9/ 13 1029.5F
MICHIGAN CITY     30     130/ 11/ 15   N/A
BURNS HARBOR      31     140/  6/ 11 1031.2R
SAINT JOSEPH      28     120/  2/  7 1031.2

$$
&&




USA.gov is the U.S. government's official web portal to all federal, state and local government web resources and services.